Home > Weather > Santa Clara > Past weeks

Flag for U.S.A. Weather for the Past 2 Weeks in Santa Clara, California, U.S.A.

Now
48 °F

Clear.


Feels Like: 48 °F
Forecast: 46 / 72 °F
Wind: No wind

Location: San Jose International Airport

Current Time: Feb 7, 2016 at 3:37:42 AM

Latest Report: Feb 7, 2016 at 2:53 AM


Visibility: 9 mi

Pressure: 30.29 "Hg

Humidity: 83%

Dew point: 43 °F

Location of Santa ClaraLocation

Historic Weather in Santa Clara — Graph

°F

Santa Clara Temperature Yesterday

Maximum temperature yesterday: 64 °F (at 2:53 PM)
Minimum temperature yesterday: 42 °F (at 5:53 AM)
Average temperature yesterday: 53 °F

High & Low Weather Summary for the Past Weeks

 TemperatureHumidityPressure
High67 °F (Jan 29, 2:53 PM)93% (Jan 26, 1:53 AM)30.46 "Hg (Jan 26, 1:53 AM)
Low39 °F (Feb 2, 12:53 AM)37% (Feb 1, 2:53 PM)29.76 "Hg (Jan 31, 2:53 PM)
Average52 °F72%30.22 "Hg
* Reported Jan 23 1:53 AM — Feb 7 1:53 AM, Santa Clara, Weather by CustomWeather, © 2016

Note: Actual official high and low records may vary slightly from our data, if they occured in-between our weather recording intervals... More about our weather records

Advertising

Santa Clara Weather History for the Previous 24 Hours

 ConditionsComfort  
Time TempWeatherWind HumidityBarometerVisibility
1:53 AM
Sun, Feb 7
48 °FClear.No wind86%30.30 "Hg9 mi
12:53 AM48 °FClear.3 mph83%30.31 "Hg9 mi
11:53 PM
Sat, Feb 6
49 °FClear.3 mph80%30.32 "Hg10 mi
10:53 PM53 °FClear.No wind77%30.32 "Hg10 mi
9:53 PM54 °FPassing clouds.No wind69%30.32 "Hg10 mi
8:53 PM56 °FPassing clouds.No wind65%30.32 "Hg10 mi
7:53 PM56 °FPassing clouds.No wind65%30.30 "Hg10 mi
6:53 PM58 °FPassing clouds.5 mph60%30.30 "Hg10 mi
5:53 PM59 °FPassing clouds.6 mph64%30.30 "Hg10 mi
4:53 PM62 °FPartly sunny.8 mph62%30.30 "Hg10 mi
3:53 PM64 °FScattered clouds.7 mph58%30.31 "Hg10 mi
2:53 PM64 °FScattered clouds.6 mph56%30.31 "Hg10 mi
1:53 PM63 °FScattered clouds.3 mph56%30.33 "Hg10 mi
12:53 PM63 °FScattered clouds.3 mph54%30.36 "Hg10 mi
11:53 AM60 °FScattered clouds.No wind58%30.40 "Hg10 mi
10:53 AM57 °FPassing clouds.3 mph69%30.42 "Hg9 mi
9:53 AM52 °FHaze.No wind77%30.43 "Hg6 mi
8:53 AM49 °FPassing clouds.No wind80%30.43 "Hg9 mi
7:53 AM44 °FPassing clouds.No wind85%30.43 "Hg10 mi
6:53 AM43 °FPassing clouds.No wind86%30.42 "Hg10 mi
5:53 AM42 °FPassing clouds.No wind89%30.40 "Hg10 mi
4:53 AM44 °FClear.3 mph85%30.39 "Hg10 mi
3:53 AM46 °FClear.No wind83%30.37 "Hg10 mi
Weather by CustomWeather, © 2016

See weather overviewHow to use our weather pages